This is the latest recevied weather packets stored in our database for station/object N9BID. If no packets are shown the sender has not sent any weather packets the latest 10 day(s).
| Time | Temp. | Humidity | Pressure | Rain* | Wind** | Luminosity | Snow |
|---|---|---|---|---|---|---|---|
| 1777156269 | 16.11° C | 57% | 1008.2 hPa | 0 mm | - | 298 W/m² | - |
| 1777155966 | 16.11° C | 55% | 1007.9 hPa | 0 mm | - | 198 W/m² | - |
| 1777155662 | 15.56° C | 57% | 1008.1 hPa | 0 mm | - | 307 W/m² | - |
| 1777155358 | 15.56° C | 56% | 1008.1 hPa | 0 mm | - | 178 W/m² | - |
| 1777155055 | 15.56° C | 56% | 1008.2 hPa | 0 mm | - | 176 W/m² | - |
| 1777154753 | 15.56° C | 56% | 1007.8 hPa | 0 mm | - | 148 W/m² | - |
| 1777154449 | 16.11° C | 56% | 1008 hPa | 0 mm | - | 146 W/m² | - |
| 1777154143 | 16.11° C | 56% | 1007.8 hPa | 0 mm | - | 160 W/m² | - |
| 1777153840 | 16.67° C | 56% | 1007.8 hPa | 0 mm | - | 214 W/m² | - |
| 1777153537 | 16.11° C | 55% | 1008.1 hPa | 0 mm | - | 217 W/m² | - |
| 1777153232 | 16.67° C | 55% | 1007.9 hPa | 0 mm | - | 420 W/m² | - |
| 1777152930 | 16.67° C | 53% | 1007.9 hPa | 0 mm | - | 427 W/m² | - |
| 1777152626 | 16.67° C | 55% | 1008 hPa | 0 mm | - | 501 W/m² | - |
| 1777152324 | 16.11° C | 55% | 1008 hPa | 0 mm | - | 471 W/m² | - |
| 1777152018 | 16.11° C | 55% | 1008.2 hPa | 0 mm | - | 379 W/m² | - |
| 1777151714 | 16.11° C | 54% | 1008.2 hPa | 0 mm | - | 210 W/m² | - |
| 1777151411 | 15.56° C | 55% | 1008.5 hPa | 0 mm | - | 563 W/m² | - |
| 1777151106 | 15.56° C | 55% | 1008.1 hPa | 0 mm | - | 217 W/m² | - |
| 1777150801 | 16.11° C | 57% | 1008.1 hPa | 0 mm | - | 292 W/m² | - |
| 1777150496 | 15.56° C | 56% | 1008.5 hPa | 0 mm | - | 229 W/m² | - |
| 1777150193 | 15.56° C | 55% | 1008.5 hPa | 0 mm | - | 258 W/m² | - |
| 1777149891 | 15.56° C | 55% | 1008.7 hPa | 0 mm | - | 222 W/m² | - |
| 1777149587 | 15.56° C | 55% | 1008.2 hPa | 0 mm | - | 217 W/m² | - |
| 1777149284 | 15.56° C | 55% | 1008.1 hPa | 0 mm | - | 249 W/m² | - |
| 1777148984 | 15.56° C | 56% | 1008.3 hPa | 0 mm | - | 297 W/m² | - |
* Rain latest hour (hover to see other rain measurements)
** Current wind speed in m/s (hover to see current wind gust speed)